| time (UTC) | temp C | wind direction | speed KPH | gust KPH | rain 1hr cm | rain 24hr cm | rain mn cm | humidity % | barometer mb |
| 20260505032100 | 19 | 334 | 8.0 | 14.5 | 0.00 | 0.00 | 0.00 | 39 | 1001.0 |
| 20260505031601 | 19 | 329 | 8.0 | 16.1 | 0.00 | 0.00 | 0.00 | 38 | 1004.0 |
| 20260505031100 | 20 | 309 | 9.7 | 19.3 | 0.00 | 0.00 | 0.00 | 37 | 994.4 |
| 20260505030600 | 20 | 320 | 9.7 | 19.3 | 0.00 | 0.00 | 0.00 | 36 | 1010.1 |
| 20260505030100 | 20 | 325 | 9.7 | 22.5 | 0.00 | 0.00 | 0.00 | 36 | 1003.8 |
| 20260505025603 | 20 | 295 | 9.7 | 24.1 | 0.00 | 0.00 | 0.00 | 35 | 994.0 |
| 20260505025051 | 20 | 355 | 9.7 | 24.1 | 0.00 | 0.00 | 0.00 | 34 | 977.8 |
| 20260505024536 | 21 | 315 | 11.3 | 29.0 | 0.00 | 0.00 | 0.00 | 33 | 1009.8 |
| 20260505024037 | 21 | 328 | 11.3 | 29.0 | 0.00 | 0.00 | 0.00 | 32 | 995.6 |
| 20260505023536 | 21 | 309 | 11.3 | 25.7 | 0.00 | 0.00 | 0.00 | 31 | 974.9 |
| 20260505023037 | 22 | 324 | 11.3 | 24.1 | 0.00 | 0.00 | 0.00 | 31 | 975.9 |
| 20260505022536 | 22 | 342 | 11.3 | 22.5 | 0.00 | 0.00 | 0.00 | 31 | 993.6 |
| 20260505022036 | 22 | 340 | 11.3 | 22.5 | 0.00 | 0.00 | 0.00 | 30 | 971.6 |
| 20260505021536 | 23 | 323 | 9.7 | 27.4 | 0.00 | 0.00 | 0.00 | 29 | 984.6 |
| 20260505021310 | 23 | 279 | 9.7 | 27.4 | 0.00 | 0.00 | 0.00 | 30 | 998.2 |
| 20260505020538 | 23 | 318 | 11.3 | 25.7 | 0.00 | 0.00 | 0.00 | 30 | 965.8 |
| 20260505020038 | 23 | 318 | 12.9 | 29.0 | 0.00 | 0.00 | 0.00 | 29 | 938.1 |
| 20260505015537 | 23 | 323 | 12.9 | 30.6 | 0.00 | 0.00 | 0.00 | 29 | 961.9 |
| 20260505015308 | 23 | 325 | 12.9 | 35.4 | 0.00 | 0.00 | 0.00 | 28 | 909.4 |
| 20260505014536 | 24 | 338 | 11.3 | 35.4 | 0.00 | 0.00 | 0.00 | 28 | 908.7 |
| 20260505014036 | 24 | 317 | 11.3 | 27.4 | 0.00 | 0.00 | 0.00 | 28 | 904.7 |
| 20260505013536 | 25 | 340 | 11.3 | 27.4 | 0.00 | 0.00 | 0.00 | 28 | 884.4 |
| 20260505013036 | 25 | 20 | 11.3 | 22.5 | 0.00 | 0.00 | 0.00 | 28 | 900.7 |
| 20260505012537 | 25 | 351 | 11.3 | 25.7 | 0.00 | 0.00 | 0.00 | 28 | 892.5 |
| 20260505012039 | 25 | 305 | 14.5 | 30.6 | 0.00 | 0.00 | 0.00 | 28 | 890.6 |
| 20260505011536 | 25 | 2 | 14.5 | 30.6 | 0.00 | 0.00 | 0.00 | 28 | 890.7 |
| 20260505011035 | 25 | 300 | 12.9 | 25.7 | 0.00 | 0.00 | 0.00 | 28 | 854.1 |
| 20260505010812 | 26 | 313 | 11.3 | 27.4 | 0.00 | 0.00 | 0.00 | 28 | 897.3 |
| 20260505010307 | 26 | 307 | 12.9 | 33.8 | 0.00 | 0.00 | 0.00 | 27 | 978.1 |
| 20260505005531 | 26 | 330 | 12.9 | 33.8 | 0.00 | 0.00 | 0.00 | 26 | 981.8 |
| 20260505005026 | 26 | 329 | 11.3 | 25.7 | 0.00 | 0.00 | 0.00 | 26 | 982.5 |
| 20260505004526 | 26 | 320 | 9.7 | 24.1 | 0.00 | 0.00 | 0.00 | 25 | 1000.2 |
| 20260505004025 | 26 | 353 | 11.3 | 24.1 | 0.00 | 0.00 | 0.00 | 24 | 997.0 |
| 20260505003527 | 27 | 47 | 11.3 | 24.1 | 0.00 | 0.00 | 0.00 | 22 | 981.4 |
| 20260505003026 | 26 | 350 | 11.3 | 27.4 | 0.00 | 0.00 | 0.00 | 23 | 1000.3 |
| 20260505002525 | 27 | 322 | 12.9 | 27.4 | 0.00 | 0.00 | 0.00 | 22 | 1009.5 |
| 20260505002022 | 27 | 332 | 9.7 | 25.7 | 0.00 | 0.00 | 0.00 | 21 | 1007.9 |
| 20260505001522 | 27 | 46 | 9.7 | 20.9 | 0.00 | 0.00 | 0.00 | 23 | 991.9 |
| 20260505001022 | 27 | 18 | 11.3 | 20.9 | 0.00 | 0.00 | 0.00 | 22 | 997.2 |
| 20260505000520 | 26 | 324 | 11.3 | 27.4 | 0.00 | 0.00 | 0.00 | 22 | 1009.7 |
| 20260505000019 | 26 | 354 | 9.7 | 27.4 | 0.00 | 0.00 | 0.00 | 22 | 1003.5 |
| 20260504235520 | 26 | 333 | 8.0 | 19.3 | 0.00 | 0.00 | 0.00 | 23 | 1009.6 |
| 20260504235017 | 26 | 319 | 6.4 | 17.7 | 0.00 | 0.00 | 0.00 | 23 | 1000.5 |
| 20260504234520 | 25 | 306 | 6.4 | 19.3 | 0.00 | 0.00 | 0.00 | 23 | 1003.3 |
| 20260504234020 | 26 | 26 | 6.4 | 22.5 | 0.00 | 0.00 | 0.00 | 23 | 1009.7 |
| 20260504233515 | 26 | 355 | 4.8 | 22.5 | 0.00 | 0.00 | 0.00 | 23 | 1009.6 |
| 20260504233009 | 25 | 110 | 6.4 | 16.1 | 0.00 | 0.00 | 0.00 | 24 | 1009.7 |
| 20260504232506 | 25 | 354 | 6.4 | 16.1 | 0.00 | 0.00 | 0.00 | 24 | 1009.8 |
| 20260504232003 | 25 | 322 | 8.0 | 17.7 | 0.00 | 0.00 | 0.00 | 26 | 1010.0 |
| 20260504231504 | 25 | 52 | 8.0 | 19.3 | 0.00 | 0.00 | 0.00 | 24 | 1009.8 |
| 20260504231234 | 26 | 3 | 6.4 | 19.3 | 0.00 | 0.00 | 0.00 | 23 | 1009.8 |
| 20260504230504 | 26 | 45 | 6.4 | 19.3 | 0.00 | 0.00 | 0.00 | 23 | 1009.8 |
| 20260504230001 | 26 | 354 | 6.4 | 17.7 | 0.00 | 0.00 | 0.00 | 23 | 1009.8 |
| 20260504225502 | 26 | 357 | 6.4 | 20.9 | 0.00 | 0.00 | 0.00 | 23 | 1010.0 |
| 20260504225004 | 25 | 345 | 6.4 | 20.9 | 0.00 | 0.00 | 0.00 | 24 | 1009.8 |
| 20260504224459 | 25 | 38 | 6.4 | 20.9 | 0.00 | 0.00 | 0.00 | 24 | 1010.0 |
| 20260504223959 | 26 | 342 | 6.4 | 24.1 | 0.00 | 0.00 | 0.00 | 24 | 1010.2 |
| 20260504223459 | 26 | 52 | 8.0 | 24.1 | 0.00 | 0.00 | 0.00 | 27 | 1010.1 |
| 20260504222950 | 26 | 9 | 9.7 | 22.5 | 0.00 | 0.00 | 0.00 | 24 | 1010.2 |
| 20260504222447 | 26 | 329 | 8.0 | 22.5 | 0.00 | 0.00 | 0.00 | 23 | 1010.2 |
| 20260504221948 | 26 | 82 | 6.4 | 19.3 | 0.00 | 0.00 | 0.00 | 24 | 1010.1 |
| 20260504221447 | 26 | 86 | 6.4 | 17.7 | 0.00 | 0.00 | 0.00 | 25 | 1010.3 |
| 20260504221218 | 26 | 74 | 6.4 | 17.7 | 0.00 | 0.00 | 0.00 | 26 | 1010.5 |
| 20260504220447 | 26 | 332 | 6.4 | 17.7 | 0.00 | 0.00 | 0.00 | 24 | 1010.4 |
| 20260504215948 | 26 | 23 | 6.4 | 22.5 | 0.00 | 0.00 | 0.00 | 24 | 1010.5 |
| 20260504215447 | 26 | 59 | 6.4 | 24.1 | 0.00 | 0.00 | 0.00 | 24 | 1010.6 |
| 20260504214949 | 26 | 55 | 6.4 | 24.1 | 0.00 | 0.00 | 0.00 | 24 | 1010.6 |
| 20260504214441 | 26 | 0 | 6.4 | 22.5 | 0.00 | 0.00 | 0.00 | 25 | 1010.5 |
| 20260504213929 | 26 | 45 | 8.0 | 22.5 | 0.00 | 0.00 | 0.00 | 24 | 1010.5 |
| 20260504213423 | 26 | 343 | 6.4 | 16.1 | 0.00 | 0.00 | 0.00 | 25 | 1010.5 |
| 20260504212923 | 26 | 48 | 8.0 | 17.7 | 0.00 | 0.00 | 0.00 | 25 | 1010.6 |
| 20260504212425 | 26 | 53 | 9.7 | 27.4 | 0.00 | 0.00 | 0.00 | 26 | 1010.7 |
| 20260504211922 | 26 | 358 | 9.7 | 27.4 | 0.00 | 0.00 | 0.00 | 25 | 1010.7 |
| 20260504211419 | 26 | 355 | 6.4 | 16.1 | 0.00 | 0.00 | 0.00 | 24 | 1010.7 |
| 20260504210919 | 26 | 328 | 4.8 | 12.9 | 0.00 | 0.00 | 0.00 | 24 | 1010.7 |
| 20260504210421 | 26 | 354 | 6.4 | 19.3 | 0.00 | 0.00 | 0.00 | 25 | 1010.7 |
| 20260504205920 | 26 | 20 | 6.4 | 19.3 | 0.00 | 0.00 | 0.00 | 25 | 1010.8 |
| 20260504205417 | 26 | 76 | 6.4 | 14.5 | 0.00 | 0.00 | 0.00 | 23 | 1010.8 |
| 20260504204915 | 26 | 353 | 6.4 | 14.5 | 0.00 | 0.00 | 0.00 | 24 | 1010.8 |
| 20260504204415 | 26 | 20 | 4.8 | 17.7 | 0.00 | 0.00 | 0.00 | 26 | 1011.0 |
| 20260504203915 | 25 | 91 | 4.8 | 17.7 | 0.00 | 0.00 | 0.00 | 26 | 1011.0 |
| 20260504203647 | 25 | 29 | 4.8 | 11.3 | 0.00 | 0.00 | 0.00 | 25 | 1011.0 |
| 20260504202905 | 25 | 341 | 6.4 | 17.7 | 0.00 | 0.00 | 0.00 | 27 | 1011.1 |
| 20260504202355 | 25 | 353 | 6.4 | 17.7 | 0.00 | 0.00 | 0.00 | 27 | 1011.1 |
| 20260504201846 | 25 | 30 | 6.4 | 20.9 | 0.00 | 0.00 | 0.00 | 27 | 1011.0 |
| 20260504201335 | 25 | 16 | 8.0 | 20.9 | 0.00 | 0.00 | 0.00 | 26 | 1011.2 |
| 20260504200825 | 25 | 35 | 8.0 | 17.7 | 0.00 | 0.00 | 0.00 | 28 | 1011.1 |
| 20260504200315 | 25 | 7 | 4.8 | 17.7 | 0.00 | 0.00 | 0.00 | 27 | 1011.1 |
| 20260504195810 | 25 | 65 | 4.8 | 12.9 | 0.00 | 0.00 | 0.00 | 30 | 1011.2 |
| 20260504195304 | 25 | 40 | 6.4 | 17.7 | 0.00 | 0.00 | 0.00 | 29 | 1011.2 |
| 20260504194757 | 25 | 336 | 8.0 | 19.3 | 0.00 | 0.00 | 0.00 | 28 | 1011.2 |
| 20260504194251 | 25 | 31 | 8.0 | 22.5 | 0.00 | 0.00 | 0.00 | 27 | 1011.3 |
| 20260504193745 | 25 | 328 | 6.4 | 22.5 | 0.00 | 0.00 | 0.00 | 28 | 1011.2 |
| 20260504193234 | 25 | 336 | 6.4 | 16.1 | 0.00 | 0.00 | 0.00 | 28 | 1010.8 |
| 20260504192725 | 25 | 73 | 8.0 | 16.1 | 0.00 | 0.00 | 0.00 | 26 | 1011.3 |
| 20260504192214 | 25 | 51 | 6.4 | 14.5 | 0.00 | 0.00 | 0.00 | 27 | 1011.4 |
| 20260504191709 | 25 | 32 | 6.4 | 16.1 | 0.00 | 0.00 | 0.00 | 26 | 1011.4 |
| 20260504191203 | 25 | 64 | 6.4 | 16.1 | 0.00 | 0.00 | 0.00 | 28 | 1011.4 |
| 20260504190927 | 25 | 352 | 4.8 | 12.9 | 0.00 | 0.00 | 0.00 | 28 | 1011.5 |
| 20260504190151 | 25 | 39 | 4.8 | 12.9 | 0.00 | 0.00 | 0.00 | 30 | 1011.6 |
| 20260504185644 | 24 | 34 | 4.8 | 14.5 | 0.00 | 0.00 | 0.00 | 29 | 1011.3 |
| 20260504185411 | 25 | 27 | 6.4 | 17.7 | 0.00 | 0.00 | 0.00 | 29 | 1011.7 |
| 20260504184904 | 25 | 78 | 4.8 | 17.7 | 0.00 | 0.00 | 0.00 | 29 | 1011.9 |
| 20260504184741 | 24 | 26 | 6.4 | 14.5 | 0.00 | 0.00 | 0.00 | 30 | 1011.9 |
| 20260504183903 | 24 | 28 | 6.4 | 16.1 | 0.00 | 0.00 | 0.00 | 31 | 1011.9 |
| 20260504183132 | 24 | 348 | 8.0 | 16.1 | 0.00 | 0.00 | 0.00 | 31 | 1011.9 |
| 20260504182633 | 23 | 325 | 8.0 | 17.7 | 0.00 | 0.00 | 0.00 | 31 | 1011.9 |
| 20260504182403 | 23 | 92 | 6.4 | 17.7 | 0.00 | 0.00 | 0.00 | 31 | 1012.0 |
| 20260504181633 | 23 | 5 | 6.4 | 12.9 | 0.00 | 0.00 | 0.00 | 32 | 1012.0 |
| 20260504181133 | 23 | 334 | 6.4 | 16.1 | 0.00 | 0.00 | 0.00 | 33 | 1011.9 |
| 20260504180633 | 23 | 47 | 8.0 | 17.7 | 0.00 | 0.00 | 0.00 | 32 | 1011.9 |
| 20260504180133 | 23 | 337 | 6.4 | 17.7 | 0.00 | 0.00 | 0.00 | 32 | 1011.9 |
| 20260504175636 | 23 | 336 | 4.8 | 14.5 | 0.00 | 0.00 | 0.00 | 33 | 1011.9 |
| 20260504175136 | 23 | 323 | 6.4 | 14.5 | 0.00 | 0.00 | 0.00 | 34 | 1012.0 |
| 20260504174857 | 23 | 338 | 6.4 | 14.5 | 0.00 | 0.00 | 0.00 | 33 | 1012.0 |
| 20260504174125 | 23 | 1 | 4.8 | 14.5 | 0.00 | 0.00 | 0.00 | 32 | 1012.0 |
| 20260504173624 | 22 | 76 | 4.8 | 14.5 | 0.00 | 0.00 | 0.00 | 34 | 1012.0 |
| 20260504173124 | 22 | 49 | 4.8 | 14.5 | 0.00 | 0.00 | 0.00 | 33 | 1012.0 |
| 20260504172855 | 22 | 92 | 4.8 | 14.5 | 0.00 | 0.00 | 0.00 | 34 | 1012.0 |
| 20260504172127 | 22 | 34 | 3.2 | 12.9 | 0.00 | 0.00 | 0.00 | 35 | 1012.1 |
| 20260504171623 | 21 | 4 | 3.2 | 8.0 | 0.00 | 0.00 | 0.00 | 35 | 1012.0 |
| 20260504171126 | 21 | 14 | 4.8 | 12.9 | 0.00 | 0.00 | 0.00 | 36 | 1012.0 |
| 20260504170616 | 21 | 17 | 4.8 | 12.9 | 0.00 | 0.00 | 0.00 | 35 | 1012.0 |
| 20260504170348 | 20 | 318 | 3.2 | 11.3 | 0.00 | 0.00 | 0.00 | 34 | 1012.0 |
| 20260504160106 | 17 | 0 | 1.6 | 6.4 | 0.00 | 0.00 | 0.00 | 46 | 1012.0 |
| 20260504151008 | 13 | 243 | 1.6 | 3.2 | 0.00 | 0.00 | 0.00 | 56 | 1012.1 |
| 20260504150506 | 13 | 243 | 1.6 | 3.2 | 0.00 | 0.00 | 0.00 | 56 | 1012.1 |
| 20260504140955 | 12 | 222 | 3.2 | 6.4 | 0.00 | 0.00 | 0.00 | 55 | 1012.1 |
| 20260504140448 | 12 | 184 | 3.2 | 6.4 | 0.00 | 0.00 | 0.00 | 56 | 1012.1 |
| 20260504130426 | 12 | 174 | 0.0 | 0.0 | 0.00 | 0.00 | 0.00 | 52 | 1011.6 |
| 20260504120110 | 13 | 132 | 1.6 | 6.4 | 0.00 | 0.00 | 0.00 | 48 | 1011.5 |
| 20260504110335 | 13 | 109 | 1.6 | 3.2 | 0.00 | 0.00 | 0.00 | 48 | 1011.9 |
| 20260504100158 | 14 | 84 | 3.2 | 6.4 | 0.00 | 0.00 | 0.00 | 48 | 1012.2 |
| 20260504081948 | 15 | 307 | 0.0 | 0.0 | 0.00 | 0.00 | 0.00 | 45 | 1012.2 |
| 20260504081449 | 15 | 105 | 0.0 | 0.0 | 0.00 | 0.00 | 0.00 | 46 | 1012.3 |
| 20260504080950 | 15 | 100 | 0.0 | 4.8 | 0.00 | 0.00 | 0.00 | 45 | 1012.3 |
| 20260504080447 | 15 | 109 | 1.6 | 6.4 | 0.00 | 0.00 | 0.00 | 44 | 1012.3 |
| 20260504070340 | 15 | 98 | 0.0 | 0.0 | 0.00 | 0.00 | 0.00 | 45 | 1012.4 |
| 20260504060234 | 16 | 325 | 1.6 | 6.4 | 0.00 | 0.00 | 0.00 | 41 | 1012.4 |
| 20260504050555 | 17 | 83 | 1.6 | 4.8 | 0.00 | 0.00 | 0.00 | 40 | 1012.4 |
| 20260504045536 | 17 | 85 | 0.0 | 4.8 | 0.00 | 0.00 | 0.00 | 40 | 1012.3 |
| 20260504045025 | 17 | 86 | 0.0 | 3.2 | 0.00 | 0.00 | 0.00 | 39 | 1012.3 |
| 20260504044519 | 18 | 76 | 0.0 | 1.6 | 0.00 | 0.00 | 0.00 | 37 | 1012.3 |
| 20260504044014 | 18 | 74 | 0.0 | 1.6 | 0.00 | 0.00 | 0.00 | 37 | 1012.3 |
| 20260504043503 | 18 | 43 | 0.0 | 1.6 | 0.00 | 0.00 | 0.00 | 36 | 1012.2 |
| 20260504042953 | 18 | 40 | 0.0 | 1.6 | 0.00 | 0.00 | 0.00 | 35 | 1012.2 |
| 20260504042448 | 19 | 40 | 0.0 | 1.6 | 0.00 | 0.00 | 0.00 | 36 | 1012.1 |
| 20260504041941 | 19 | 40 | 0.0 | 1.6 | 0.00 | 0.00 | 0.00 | 34 | 1012.1 |
| 20260504041432 | 19 | 55 | 0.0 | 1.6 | 0.00 | 0.00 | 0.00 | 33 | 1012.0 |
| 20260504040928 | 20 | 39 | 0.0 | 1.6 | 0.00 | 0.00 | 0.00 | 33 | 1012.0 |
| 20260504040429 | 20 | 40 | 0.0 | 4.8 | 0.00 | 0.00 | 0.00 | 33 | 983.8 |
| 20260504035928 | 20 | 42 | 0.0 | 4.8 | 0.00 | 0.00 | 0.00 | 33 | 1011.7 |
| 20260504035428 | 20 | 55 | 0.0 | 4.8 | 0.00 | 0.00 | 0.00 | 33 | 1011.7 |
| 20260504034929 | 20 | 34 | 1.6 | 6.4 | 0.00 | 0.00 | 0.00 | 32 | 986.5 |
| 20260504034428 | 21 | 47 | 3.2 | 8.0 | 0.00 | 0.00 | 0.00 | 32 | 989.8 |
| 20260504034159 | 21 | 68 | 3.2 | 11.3 | 0.00 | 0.00 | 0.00 | 32 | 1008.5 |
| 20260504033427 | 21 | 357 | 3.2 | 14.5 | 0.00 | 0.00 | 0.00 | 31 | 992.8 |
| 20260504033157 | 21 | 39 | 3.2 | 14.5 | 0.00 | 0.00 | 0.00 | 30 | 1008.2 |